�������l�o���
Date,Time,MP-1(��Sv/h),MP-2(��Sv/h),MP-3(��Sv/h),MP-4(��Sv/h),MP-5(��Sv/h),MP-6(��Sv/h),MP-7(��Sv/h),MP-8(��Sv/h),����,����(m/s),���J
2017/06/19,00:00,0.996,1.588,1.049,1.881,1.295,0.526,0.968,0.899,�k�k��,7.5,��
2017/06/19,00:10,0.994,1.591,1.051,1.882,1.292,0.527,0.968,0.899,�k�k��,7.4,��
2017/06/19,00:20,0.997,1.588,1.050,1.882,1.294,0.526,0.969,0.897,�k�k��,6.9,��
2017/06/19,00:30,0.996,1.590,1.051,1.881,1.293,0.527,0.967,0.898,�k,6.9,��
2017/06/19,00:40,0.996,1.587,1.049,1.880,1.296,0.527,0.969,0.898,�k�k��,7.1,��
2017/06/19,00:50,0.997,1.587,1.051,1.883,1.295,0.527,0.969,0.898,�k,6.4,��
2017/06/19,01:00,0.996,1.588,1.050,1.883,1.294,0.527,0.967,0.901,�k,6.9,��
2017/06/19,01:10,0.996,1.587,1.051,1.883,1.294,0.526,0.970,0.900,�k,7.1,��
2017/06/19,01:20,0.996,1.587,1.049,1.882,1.294,0.528,0.969,0.900,�k,6.8,��
2017/06/19,01:30,0.993,1.590,1.050,1.880,1.296,0.526,0.969,0.899,�k,6.7,��
2017/06/19,01:40,0.995,1.587,1.050,1.882,1.294,0.528,0.969,0.898,�k,6.9,�L
2017/06/19,01:50,0.995,1.589,1.048,1.879,1.295,0.528,0.970,0.899,�k,7.1,�L
2017/06/19,02:00,0.994,1.588,1.050,1.883,1.294,0.528,0.969,0.899,�k,8.1,�L
2017/06/19,02:10,0.995,1.590,1.051,1.881,1.297,0.527,0.969,0.898,�k,7.6,�L
2017/06/19,02:20,0.995,1.588,1.051,1.881,1.294,0.528,0.966,0.900,�k,7.0,�L
2017/06/19,02:30,0.994,1.586,1.049,1.883,1.295,0.526,0.970,0.896,�k,7.0,�L
2017/06/19,02:40,0.995,1.584,1.048,1.880,1.292,0.526,0.966,0.896,�k,6.7,�L
2017/06/19,02:50,0.994,1.583,1.049,1.880,1.287,0.528,0.966,0.898,�k,7.5,�L
2017/06/19,03:00,0.989,1.582,1.048,1.873,1.286,0.527,0.965,0.896,�k,7.2,�L
2017/06/19,03:10,0.986,1.578,1.044,1.871,1.280,0.527,0.962,0.891,�k,7.9,�L
2017/06/19,03:20,0.983,1.568,1.040,1.865,1.274,0.526,0.961,0.889,�k,9.3,�L
2017/06/19,03:30,0.978,1.556,1.036,1.856,1.263,0.523,0.958,0.886,�k,8.5,�L
2017/06/19,03:40,0.970,1.542,1.027,1.840,1.254,0.523,0.955,0.884,�k�k��,8.0,�L
2017/06/19,03:50,0.962,1.526,1.024,1.828,1.245,0.520,0.952,0.883,�k�k��,8.0,�L
2017/06/19,04:00,0.961,1.524,1.020,1.819,1.240,0.518,0.951,0.880,�k,8.1,�L
2017/06/19,04:10,0.959,1.521,1.020,1.819,1.239,0.519,0.949,0.878,�k,7.2,�L
2017/06/19,04:20,0.962,1.523,1.015,1.814,1.238,0.518,0.950,0.880,�k,8.2,�L
2017/06/19,04:30,0.960,1.517,1.018,1.812,1.237,0.519,0.947,0.879,�k�k��,9.3,�L
2017/06/19,04:40,0.958,1.517,1.016,1.811,1.236,0.518,0.950,0.879,�k,10.0,�L
2017/06/19,04:50,0.957,1.517,1.015,1.811,1.236,0.520,0.948,0.880,�k,8.3,�L
2017/06/19,05:00,0.960,1.519,1.018,1.810,1.237,0.518,0.947,0.880,�k,9.9,�L
2017/06/19,05:10,0.956,1.517,1.016,1.808,1.237,0.519,0.948,0.880,�k,9.6,�L
2017/06/19,05:20,0.960,1.517,1.017,1.813,1.238,0.518,0.948,0.879,�k�k��,9.7,�L
2017/06/19,05:30,0.958,1.518,1.018,1.815,1.236,0.519,0.949,0.879,�k�k��,10.3,�L
2017/06/19,05:40,0.957,1.520,1.017,1.812,1.237,0.520,0.948,0.879,�k,10.5,�L
2017/06/19,05:50,0.959,1.521,1.017,1.813,1.238,0.517,0.948,0.881,�k,10.3,�L
2017/06/19,06:00,0.959,1.519,1.018,1.815,1.240,0.518,0.949,0.882,�k�k��,10.2,�L
2017/06/19,06:10,0.959,1.519,1.016,1.813,1.236,0.518,0.950,0.880,�k�k��,11.0,�L
2017/06/19,06:20,0.957,1.518,1.015,1.812,1.236,0.517,0.947,0.880,�k�k��,9.4,�L
2017/06/19,06:30,0.956,1.512,1.011,1.807,1.233,0.517,0.946,0.880,�k�k��,9.8,�L
2017/06/19,06:40,0.952,1.509,1.012,1.807,1.228,0.517,0.945,0.877,�k�k��,9.3,�L
2017/06/19,06:50,0.950,1.506,1.009,1.804,1.226,0.515,0.946,0.877,�k�k��,10.3,�L
2017/06/19,07:00,0.948,1.502,1.008,1.801,1.224,0.517,0.944,0.876,�k�k��,8.5,�L
2017/06/19,07:10,0.948,1.504,1.007,1.798,1.222,0.516,0.942,0.876,�k�k��,9.0,�L
2017/06/19,07:20,0.945,1.497,1.008,1.792,1.217,0.515,0.941,0.874,�k�k��,9.2,�L
2017/06/19,07:30,0.943,1.491,1.004,1.787,1.211,0.512,0.940,0.873,�k��,6.6,�L
2017/06/19,07:40,0.940,1.490,1.003,1.782,1.204,0.512,0.937,0.872,�k�k��,10.2,�L
2017/06/19,07:50,0.940,1.491,1.004,1.783,1.208,0.511,0.938,0.873,�k�k��,7.6,�L
2017/06/19,08:00,0.947,1.496,1.006,1.790,1.212,0.514,0.942,0.875,�k,8.6,�L
2017/06/19,08:10,0.948,1.497,1.006,1.796,1.217,0.514,0.943,0.873,�k,10.6,�L
2017/06/19,08:20,0.950,1.501,1.008,1.797,1.217,0.513,0.940,0.876,�k,11.4,�L
2017/06/19,08:30,0.950,1.501,1.008,1.796,1.217,0.513,0.940,0.877,�k,9.9,�L
2017/06/19,08:40,0.950,1.503,1.006,1.797,1.218,0.514,0.942,0.876,�k,10.7,�L
2017/06/19,08:50,0.951,1.504,1.007,1.801,1.218,0.516,0.942,0.875,�k,10.5,�L
2017/06/19,09:00,0.949,1.502,1.008,1.802,1.216,0.514,0.942,0.877,�k,9.9,�L
2017/06/19,09:10,0.948,1.500,1.005,1.797,1.217,0.514,0.941,0.876,�k,8.0,�L
2017/06/19,09:20,0.946,1.499,1.007,1.794,1.215,0.514,0.942,0.876,�k,8.4,�L
2017/06/19,09:30,0.946,1.500,1.004,1.793,1.213,0.514,0.940,0.875,�k,8.8,�L
2017/06/19,09:40,0.950,1.499,1.003,1.793,1.213,0.514,0.940,0.875,�k,8.7,�L
2017/06/19,09:50,0.948,1.498,1.001,1.792,1.211,0.514,0.940,0.874,�k,9.6,�L
2017/06/19,10:00,0.946,1.499,1.004,1.793,1.213,0.513,0.940,0.876,�k,9.7,�L
2017/06/19,10:10,0.947,1.499,1.004,1.795,1.212,0.513,0.941,0.876,�k,10.3,�L
2017/06/19,10:20,0.946,1.498,1.003,1.796,1.212,0.515,0.942,0.875,�k,9.2,�L
2017/06/19,10:30,0.946,1.498,1.003,1.794,1.215,0.513,0.941,0.875,�k�k��,10.0,�L
2017/06/19,10:40,0.943,1.499,1.003,1.794,1.212,0.514,0.942,0.877,�k,9.8,�L
2017/06/19,10:50,0.947,1.503,1.002,1.798,1.214,0.512,0.941,0.874,�k�k��,9.9,�L
2017/06/19,11:00,0.949,1.502,1.006,1.800,1.214,0.515,0.944,0.875,�k�k��,10.7,�L
2017/06/19,11:10,0.948,1.505,1.005,1.802,1.216,0.513,0.945,0.877,�k�k��,9.8,�L
2017/06/19,11:20,0.948,1.507,1.007,1.804,1.219,0.515,0.944,0.877,�k�k��,8.0,�L
2017/06/19,11:30,0.950,1.508,1.007,1.808,1.220,0.515,0.945,0.877,�k,7.9,�L
2017/06/19,11:40,0.951,1.510,1.007,1.808,1.223,0.514,0.948,0.877,�k�k��,6.9,�L
2017/06/19,11:50,0.953,1.512,1.006,1.808,1.223,0.516,0.947,0.878,�k,10.0,�L
2017/06/19,12:00,0.953,1.512,1.008,1.812,1.224,0.515,0.947,0.878,�k,10.0,�L
2017/06/19,12:10,0.953,1.513,1.008,1.814,1.224,0.514,0.947,0.880,�k�k��,10.9,�L
2017/06/19,12:20,0.954,1.515,1.008,1.811,1.225,0.514,0.947,0.880,�k,10.2,�L
2017/06/19,12:30,0.954,1.511,1.009,1.812,1.225,0.514,0.949,0.879,�k,10.8,�L
2017/06/19,12:40,0.958,1.516,1.007,1.816,1.230,0.514,0.950,0.880,�k,8.8,�L
2017/06/19,12:50,0.958,1.520,1.010,1.813,1.231,0.513,0.948,0.881,�k�k��,8.7,�L
2017/06/19,13:00,0.958,1.517,1.010,1.817,1.229,0.514,0.951,0.880,�k,10.2,��
2017/06/19,13:10,0.957,1.520,1.009,1.816,1.230,0.514,0.949,0.881,�k�k��,9.3,�L
2017/06/19,13:20,0.957,1.518,1.010,1.817,1.235,0.513,0.951,0.879,�k�k��,9.3,�L
2017/06/19,13:30,0.957,1.516,1.008,1.821,1.233,0.515,0.951,0.882,�k�k��,9.5,�L
2017/06/19,13:40,0.958,1.521,1.007,1.820,1.233,0.515,0.951,0.881,�k,8.8,�L
2017/06/19,13:50,0.957,1.521,1.007,1.823,1.237,0.515,0.952,0.881,�k,9.0,�L
2017/06/19,14:00,0.961,1.520,1.010,1.822,1.233,0.516,0.953,0.881,�k,7.8,�L
2017/06/19,14:10,0.963,1.521,1.010,1.822,1.234,0.516,0.954,0.883,�k,7.8,�L
2017/06/19,14:20,0.960,1.526,1.010,1.823,1.235,0.517,0.953,0.881,�k�k��,8.1,�L
2017/06/19,14:30,0.961,1.525,1.010,1.825,1.238,0.515,0.952,0.881,�k,8.3,��
2017/06/19,14:40,0.961,1.525,1.010,1.824,1.238,0.517,0.954,0.882,�k,9.3,��
2017/06/19,14:50,0.962,1.526,1.010,1.822,1.241,0.514,0.954,0.882,�k�k��,8.6,��
2017/06/19,15:00,0.962,1.528,1.012,1.824,1.242,0.516,0.951,0.880,�k�k��,9.4,��
2017/06/19,15:10,0.963,1.527,1.012,1.825,1.241,0.516,0.954,0.881,�k�k��,8.1,��
2017/06/19,15:20,0.962,1.529,1.013,1.822,1.241,0.516,0.954,0.882,�k,8.7,��
2017/06/19,15:30,0.965,1.530,1.013,1.824,1.242,0.516,0.954,0.884,�k�k��,8.2,��
2017/06/19,15:40,0.963,1.528,1.010,1.824,1.243,0.516,0.954,0.882,�k�k��,8.3,��
2017/06/19,15:50,0.963,1.529,1.009,1.826,1.242,0.516,0.956,0.882,�k�k��,8.5,��
2017/06/19,16:00,0.965,1.529,1.014,1.827,1.244,0.515,0.955,0.883,�k,6.8,��
2017/06/19,16:10,0.965,1.530,1.014,1.827,1.244,0.516,0.956,0.881,�k,6.6,��
2017/06/19,16:20,0.965,1.533,1.013,1.828,1.243,0.518,0.954,0.884,�k,8.1,��
2017/06/19,16:30,0.963,1.534,1.013,1.826,1.243,0.518,0.956,0.884,�k,7.6,��
2017/06/19,16:40,0.963,1.533,1.016,1.826,1.246,0.516,0.957,0.882,�k,7.1,��
2017/06/19,16:50,0.967,1.535,1.017,1.826,1.244,0.517,0.957,0.883,�k�k��,7.4,��
2017/06/19,17:00,0.965,1.535,1.019,1.828,1.246,0.518,0.956,0.883,�k�k��,8.4,��
2017/06/19,17:10,0.964,1.532,1.018,1.827,1.245,0.515,0.956,0.886,�k�k��,8.7,��
2017/06/19,17:20,0.966,1.535,1.017,1.833,1.247,0.517,0.955,0.884,�k�k��,8.7,��
2017/06/19,17:30,0.967,1.534,1.017,1.831,1.247,0.517,0.957,0.884,�k,9.2,��
2017/06/19,17:40,0.962,1.533,1.017,1.831,1.244,0.516,0.956,0.883,�k�k��,8.2,��
2017/06/19,17:50,0.964,1.538,1.015,1.831,1.242,0.516,0.957,0.883,�k,8.3,��
2017/06/19,18:00,0.963,1.536,1.017,1.830,1.245,0.517,0.956,0.885,�k,8.0,��
2017/06/19,18:10,0.965,1.539,1.019,1.831,1.249,0.518,0.955,0.885,�k,6.6,��
2017/06/19,18:20,0.965,1.540,1.019,1.834,1.250,0.519,0.957,0.885,�k,5.7,��
2017/06/19,18:30,0.967,1.541,1.020,1.835,1.248,0.519,0.956,0.886,�k,5.7,��
2017/06/19,18:40,0.965,1.539,1.020,1.835,1.249,0.520,0.954,0.889,�k,5.8,��
2017/06/19,18:50,0.967,1.541,1.022,1.836,1.253,0.518,0.955,0.886,�k,6.2,��
2017/06/19,19:00,0.967,1.539,1.020,1.834,1.251,0.518,0.956,0.886,�k�k��,6.9,��
2017/06/19,19:10,0.968,1.537,1.019,1.833,1.251,0.518,0.956,0.886,�k�k��,6.2,��
2017/06/19,19:20,0.967,1.540,1.020,1.834,1.250,0.519,0.955,0.887,�k�k��,5.8,��
2017/06/19,19:30,0.967,1.539,1.020,1.835,1.253,0.519,0.955,0.887,�k�k��,5.8,��
2017/06/19,19:40,0.966,1.542,1.020,1.835,1.251,0.518,0.955,0.888,�k,6.0,��
2017/06/19,19:50,0.966,1.541,1.020,1.836,1.252,0.519,0.957,0.885,�k,5.9,��
2017/06/19,20:00,0.966,1.539,1.020,1.834,1.251,0.519,0.956,0.888,�k,5.2,��
2017/06/19,20:10,0.967,1.542,1.020,1.835,1.250,0.519,0.958,0.886,�k,5.1,��
2017/06/19,20:20,0.967,1.540,1.021,1.835,1.252,0.519,0.955,0.886,�k,4.2,��
2017/06/19,20:30,0.965,1.541,1.020,1.835,1.250,0.520,0.958,0.886,�k�k��,5.1,��
2017/06/19,20:40,0.966,1.538,1.021,1.835,1.252,0.520,0.957,0.887,�k�k��,4.6,��
2017/06/19,20:50,0.969,1.541,1.022,1.835,1.252,0.520,0.957,0.886,�k,4.1,��
2017/06/19,21:00,0.968,1.541,1.021,1.838,1.251,0.519,0.956,0.887,�k,4.4,��
2017/06/19,21:10,0.968,1.537,1.019,1.833,1.252,0.519,0.956,0.887,�k,3.8,��
2017/06/19,21:20,0.968,1.537,1.020,1.837,1.252,0.518,0.956,0.887,�k�k��,3.7,��
2017/06/19,21:30,0.965,1.540,1.018,1.835,1.250,0.518,0.957,0.887,�k,4.3,��
2017/06/19,21:40,0.964,1.538,1.019,1.833,1.250,0.520,0.956,0.887,�k,3.7,��
2017/06/19,21:50,0.965,1.541,1.019,1.835,1.251,0.519,0.956,0.887,�k�k��,2.8,��
2017/06/19,22:00,0.968,1.542,1.021,1.836,1.249,0.520,0.957,0.887,�k�k��,3.1,��
2017/06/19,22:10,0.967,1.538,1.020,1.835,1.250,0.519,0.959,0.887,�k�k��,3.2,��
2017/06/19,22:20,0.965,1.541,1.020,1.836,1.254,0.520,0.957,0.886,�k�k��,3.6,��
2017/06/19,22:30,0.967,1.542,1.021,1.837,1.252,0.519,0.956,0.886,�k��,3.1,��
2017/06/19,22:40,0.965,1.542,1.021,1.836,1.253,0.519,0.957,0.887,�k��,2.6,��
2017/06/19,22:50,0.967,1.538,1.021,1.837,1.253,0.519,0.957,0.886,�k��,1.9,��
2017/06/19,23:00,0.967,1.539,1.018,1.834,1.250,0.519,0.958,0.885,�k��,2.2,��
2017/06/19,23:10,0.967,1.538,1.019,1.835,1.253,0.519,0.957,0.886,�k��,2.2,��
2017/06/19,23:20,0.968,1.537,1.019,1.834,1.252,0.521,0.958,0.885,�k�k��,1.9,��
2017/06/19,23:30,0.965,1.540,1.022,1.832,1.252,0.518,0.958,0.886,�k��,1.5,��
2017/06/19,23:40,0.966,1.539,1.023,1.836,1.252,0.519,0.960,0.887,�k�k��,2.3,��
2017/06/19,23:50,0.968,1.538,1.020,1.833,1.252,0.519,0.958,0.886,�k��,1.1,��
